TimeEST,TemperatureF,Dew PointF,Humidity,Sea Level PressureIn,VisibilityMPH,Wind Direction,Wind SpeedMPH,Gust SpeedMPH,PrecipitationIn,Events,Conditions,WindDirDegrees,DateUTC
12:15 AM,27.0,17.4,67,30.27,-9999.0,North,10.4,17.3,N/A,,Overcast,360,2012-12-15 05:15:00
12:35 AM,24.8,15.1,67,30.28,-9999.0,NNE,9.2,16.1,N/A,,Overcast,20,2012-12-15 05:35:00
12:55 AM,24.6,15.1,67,30.28,-9999.0,North,11.5,16.1,N/A,,Overcast,10,2012-12-15 05:55:00
1:15 AM,24.6,14.9,67,30.29,-9999.0,North,11.5,-,N/A,,Overcast,360,2012-12-15 06:15:00
1:35 AM,23.0,13.3,66,30.30,-9999.0,North,9.2,-,N/A,,Overcast,10,2012-12-15 06:35:00
1:55 AM,22.1,11.8,65,30.31,-9999.0,North,8.1,16.1,N/A,,Overcast,10,2012-12-15 06:55:00
2:15 AM,21.9,11.7,65,30.32,10.0,North,9.2,-,N/A,,Overcast,360,2012-12-15 07:15:00
2:35 AM,20.7,10.9,66,30.33,10.0,North,6.9,-,N/A,,Overcast,10,2012-12-15 07:35:00
2:55 AM,20.1,11.7,70,30.33,10.0,North,8.1,-,N/A,,Overcast,10,2012-12-15 07:55:00
3:15 AM,19.4,12.2,74,30.33,10.0,North,5.8,-,N/A,,Overcast,10,2012-12-15 08:15:00
3:35 AM,18.3,11.3,74,30.33,10.0,NNE,10.4,-,N/A,,Scattered Clouds,20,2012-12-15 08:35:00
3:55 AM,17.6,9.7,71,30.33,10.0,North,9.2,-,N/A,,Clear,10,2012-12-15 08:55:00
4:15 AM,17.1,8.6,69,30.34,10.0,North,10.4,-,N/A,,Clear,10,2012-12-15 09:15:00
4:35 AM,17.1,9.0,71,30.34,10.0,North,8.1,-,N/A,,Clear,10,2012-12-15 09:35:00
4:55 AM,17.1,9.3,72,30.35,10.0,North,6.9,-,N/A,,Clear,10,2012-12-15 09:55:00
5:15 AM,15.6,8.4,73,30.36,10.0,North,5.8,-,N/A,,Clear,360,2012-12-15 10:15:00
5:35 AM,15.1,8.2,74,30.36,10.0,North,6.9,-,N/A,,Clear,10,2012-12-15 10:35:00
5:55 AM,14.5,7.7,74,30.38,10.0,North,4.6,-,N/A,,Clear,360,2012-12-15 10:55:00
6:15 AM,14.5,8.2,76,30.38,10.0,North,5.8,-,N/A,,Clear,10,2012-12-15 11:15:00
6:35 AM,14.2,8.2,77,30.39,10.0,North,4.6,-,N/A,,Clear,360,2012-12-15 11:35:00
6:55 AM,13.8,7.9,77,30.40,10.0,North,5.8,-,N/A,,Clear,360,2012-12-15 11:55:00
7:15 AM,12.9,7.3,78,30.40,10.0,North,4.6,-,N/A,,Clear,360,2012-12-15 12:15:00
7:35 AM,12.4,6.8,78,30.40,10.0,North,5.8,-,N/A,,Clear,10,2012-12-15 12:35:00
7:55 AM,12.4,6.8,78,30.41,10.0,North,4.6,-,N/A,,Clear,360,2012-12-15 12:55:00
8:15 AM,12.7,7.0,78,30.42,10.0,North,4.6,-,N/A,,Clear,350,2012-12-15 13:15:00
8:35 AM,14.2,8.2,77,30.42,10.0,North,5.8,-,N/A,,Clear,360,2012-12-15 13:35:00
8:55 AM,14.5,7.7,74,30.42,10.0,NNE,6.9,-,N/A,,Clear,20,2012-12-15 13:55:00
9:15 AM,14.5,7.5,74,30.42,10.0,North,4.6,-,N/A,,Clear,350,2012-12-15 14:15:00
9:35 AM,15.1,7.5,72,30.43,10.0,North,6.9,-,N/A,,Clear,360,2012-12-15 14:35:00
9:55 AM,16.0,8.1,71,30.44,10.0,North,5.8,-,N/A,,Clear,10,2012-12-15 14:55:00
10:15 AM,17.1,8.6,69,30.44,10.0,North,8.1,-,N/A,,Clear,10,2012-12-15 15:15:00
10:35 AM,17.1,7.7,67,30.43,10.0,North,5.8,-,N/A,,Clear,360,2012-12-15 15:35:00
10:55 AM,17.1,7.7,67,30.43,10.0,North,5.8,-,N/A,,Clear,350,2012-12-15 15:55:00
11:15 AM,17.2,7.0,64,30.43,10.0,North,5.8,-,N/A,,Clear,350,2012-12-15 16:15:00
11:35 AM,18.3,7.2,62,30.42,10.0,North,6.9,-,N/A,,Clear,350,2012-12-15 16:35:00
11:55 AM,18.3,6.8,61,30.43,10.0,North,4.6,-,N/A,,Clear,350,2012-12-15 16:55:00
12:15 PM,18.3,6.8,61,30.42,10.0,North,5.8,-,N/A,,Clear,10,2012-12-15 17:15:00
12:35 PM,18.7,7.9,63,30.41,-9999.0,North,9.2,-,N/A,,Clear,360,2012-12-15 17:35:00
12:55 PM,19.2,7.9,61,30.41,10.0,NNW,5.8,-,N/A,,Clear,330,2012-12-15 17:55:00
1:15 PM,19.6,7.5,60,30.41,10.0,North,5.8,-,N/A,,Clear,350,2012-12-15 18:15:00
1:35 PM,19.4,7.7,60,30.40,10.0,NNE,5.8,-,N/A,,Clear,20,2012-12-15 18:35:00
1:55 PM,19.4,7.7,60,30.39,10.0,North,4.6,-,N/A,,Clear,350,2012-12-15 18:55:00
2:15 PM,19.8,7.7,60,30.39,10.0,North,6.9,-,N/A,,Clear,350,2012-12-15 19:15:00
2:35 PM,19.8,7.5,59,30.38,10.0,NNW,5.8,-,N/A,,Clear,340,2012-12-15 19:35:00
2:55 PM,19.8,7.7,60,30.37,10.0,North,6.9,-,N/A,,Clear,350,2012-12-15 19:55:00
3:15 PM,20.1,7.2,57,30.37,10.0,North,3.5,-,N/A,,Clear,10,2012-12-15 20:15:00
3:35 PM,19.6,7.0,58,30.37,10.0,North,5.8,-,N/A,,Clear,350,2012-12-15 20:35:00
3:55 PM,19.0,7.0,59,30.37,10.0,NNE,4.6,-,N/A,,Clear,20,2012-12-15 20:55:00
4:15 PM,17.6,6.6,62,30.37,10.0,NNW,3.5,-,N/A,,Clear,340,2012-12-15 21:15:00
4:35 PM,17.1,6.8,64,30.37,10.0,North,3.5,-,N/A,,Clear,360,2012-12-15 21:35:00
4:55 PM,17.1,7.5,66,30.37,10.0,North,3.5,-,N/A,,Clear,360,2012-12-15 21:55:00
5:15 PM,17.1,8.2,68,30.38,10.0,North,6.9,-,N/A,,Clear,360,2012-12-15 22:15:00
5:35 PM,16.9,8.2,69,30.38,10.0,North,5.8,-,N/A,,Clear,360,2012-12-15 22:35:00
5:55 PM,15.1,6.8,70,30.38,10.0,North,5.8,-,N/A,,Clear,10,2012-12-15 22:55:00
6:15 PM,14.5,7.3,73,30.36,10.0,NNE,4.6,-,N/A,,Clear,20,2012-12-15 23:15:00
6:35 PM,14.5,7.3,73,30.37,10.0,North,3.5,-,N/A,,Clear,10,2012-12-15 23:35:00
6:55 PM,14.5,7.7,74,30.37,10.0,North,3.5,-,N/A,,Clear,10,2012-12-15 23:55:00
7:15 PM,14.5,7.7,74,30.37,10.0,North,3.5,-,N/A,,Clear,360,2012-12-16 00:15:00
7:35 PM,14.5,8.1,75,30.38,10.0,North,3.5,-,N/A,,Clear,360,2012-12-16 00:35:00
7:55 PM,13.1,7.2,77,30.37,10.0,North,3.5,-,N/A,,Clear,10,2012-12-16 00:55:00
8:15 PM,13.1,7.3,78,30.36,10.0,Calm,Calm,-,N/A,,Clear,0,2012-12-16 01:15:00
8:35 PM,12.6,6.3,76,30.35,10.0,North,4.6,-,N/A,,Clear,10,2012-12-16 01:35:00
8:55 PM,13.1,7.0,77,30.35,10.0,NE,3.5,-,N/A,,Clear,50,2012-12-16 01:55:00
9:35 PM,13.1,6.8,76,30.34,10.0,Calm,Calm,-,N/A,,Clear,0,2012-12-16 02:35:00
10:15 PM,12.0,6.4,78,30.35,10.0,Calm,Calm,-,N/A,,Clear,0,2012-12-16 03:15:00
10:35 PM,12.0,7.5,82,30.35,10.0,Calm,Calm,-,N/A,,Clear,0,2012-12-16 03:35:00
10:55 PM,12.0,7.7,83,30.33,10.0,Calm,Calm,-,N/A,,Clear,0,2012-12-16 03:55:00
11:15 PM,12.0,7.7,83,30.32,10.0,Calm,Calm,-,N/A,,Clear,0,2012-12-16 04:15:00
11:35 PM,12.0,8.2,85,30.31,10.0,NNE,4.6,-,N/A,,Clear,30,2012-12-16 04:35:00
11:55 PM,12.0,7.7,83,30.32,10.0,Calm,Calm,-,N/A,,Clear,0,2012-12-16 04:55:00